Time,TemperatureF,DewpointF,PressureIn,WindDirection,WindDirectionDegrees,WindSpeedMPH,WindSpeedGustMPH,Humidity,HourlyPrecipIn,Conditions,Clouds,dailyrainin,SoftwareType,DateUTC
2013-05-23 00:08:00,40.4,39.0,29.93,WSW,252,0.0,0.0,94,0.00,,,0.00,weatherlink.com 1.10,2013-05-23 06:08:00,
2013-05-23 00:23:00,40.3,39.0,29.93,WSW,253,0.0,0.0,94,0.00,,,0.00,weatherlink.com 1.10,2013-05-23 06:23:00,
2013-05-23 00:38:00,40.2,39.0,29.93,ESE,112,0.0,0.0,94,0.00,,,0.00,weatherlink.com 1.10,2013-05-23 06:38:00,
2013-05-23 00:53:00,40.6,39.0,29.94,ESE,113,0.0,0.0,94,0.00,,,0.00,weatherlink.com 1.10,2013-05-23 06:53:00,
2013-05-23 01:08:00,40.6,39.0,29.94,WSW,238,0.0,0.0,94,0.00,,,0.00,weatherlink.com 1.10,2013-05-23 07:08:00,
2013-05-23 01:23:00,40.7,39.0,29.94,SW,218,0.0,0.0,94,0.00,,,0.00,weatherlink.com 1.10,2013-05-23 07:23:00,
2013-05-23 01:38:00,40.7,39.0,29.93,SW,232,0.0,0.0,94,0.00,,,0.00,weatherlink.com 1.10,2013-05-23 07:38:00,
2013-05-23 01:53:00,40.8,39.0,29.93,WSW,257,0.0,1.0,94,0.00,,,0.00,weatherlink.com 1.10,2013-05-23 07:53:00,
2013-05-23 02:08:00,41.2,40.0,29.92,WSW,257,0.0,0.0,95,0.00,,,0.00,weatherlink.com 1.10,2013-05-23 08:08:00,
2013-05-23 02:23:00,40.8,39.0,29.92,WSW,257,0.0,0.0,94,0.00,,,0.00,weatherlink.com 1.10,2013-05-23 08:23:00,
2013-05-23 02:38:00,40.5,39.0,29.92,WSW,257,0.0,0.0,94,0.00,,,0.00,weatherlink.com 1.10,2013-05-23 08:38:00,
2013-05-23 02:53:00,40.8,40.0,29.92,WSW,257,0.0,0.0,95,0.00,,,0.00,weatherlink.com 1.10,2013-05-23 08:53:00,
2013-05-23 03:08:00,40.6,39.0,29.91,WSW,257,0.0,0.0,95,0.00,,,0.00,weatherlink.com 1.10,2013-05-23 09:08:00,
2013-05-23 03:23:00,40.6,39.0,29.91,WSW,257,0.0,0.0,95,0.00,,,0.00,weatherlink.com 1.10,2013-05-23 09:23:00,
2013-05-23 03:38:00,40.6,39.0,29.90,West,272,0.0,2.0,95,0.00,,,0.00,weatherlink.com 1.10,2013-05-23 09:38:00,
2013-05-23 03:53:00,40.4,39.0,29.90,West,277,0.0,0.0,95,0.00,,,0.00,weatherlink.com 1.10,2013-05-23 09:53:00,
2013-05-23 04:08:00,40.5,39.0,29.89,NE,56,0.0,0.0,95,0.00,,,0.00,weatherlink.com 1.10,2013-05-23 10:08:00,
2013-05-23 04:23:00,40.4,39.0,29.89,NE,56,0.0,0.0,95,0.00,,,0.00,weatherlink.com 1.10,2013-05-23 10:23:00,
2013-05-23 04:38:00,40.8,40.0,29.89,NW,315,0.0,0.0,95,0.00,,,0.00,weatherlink.com 1.10,2013-05-23 10:38:00,
2013-05-23 04:53:00,41.1,40.0,29.88,NW,315,0.0,0.0,95,0.00,,,0.00,weatherlink.com 1.10,2013-05-23 10:53:00,
2013-05-23 05:09:00,41.2,40.0,29.88,NW,315,0.0,0.0,95,0.00,,,0.00,weatherlink.com 1.10,2013-05-23 11:09:00,
2013-05-23 05:24:00,41.6,40.0,29.88,ESE,117,4.0,8.0,95,0.00,,,0.00,weatherlink.com 1.10,2013-05-23 11:24:00,
2013-05-23 05:39:00,41.8,40.0,29.89,SE,141,0.0,5.0,94,0.00,,,0.00,weatherlink.com 1.10,2013-05-23 11:39:00,
2013-05-23 05:54:00,41.9,40.0,29.88,East,79,3.0,4.0,93,0.00,,,0.00,weatherlink.com 1.10,2013-05-23 11:54:00,
2013-05-23 06:09:00,42.0,40.0,29.89,ESE,120,0.0,7.0,91,0.00,,,0.00,weatherlink.com 1.10,2013-05-23 12:09:00,
2013-05-23 06:24:00,41.7,39.0,29.89,SE,143,1.0,6.0,91,0.00,,,0.00,weatherlink.com 1.10,2013-05-23 12:24:00,
2013-05-23 06:39:00,41.1,39.0,29.89,East,91,0.0,1.0,92,0.00,,,0.00,weatherlink.com 1.10,2013-05-23 12:39:00,
2013-05-23 06:54:00,44.3,42.0,29.88,East,93,1.0,1.0,91,0.00,,,0.00,weatherlink.com 1.10,2013-05-23 12:54:00,
2013-05-23 07:09:00,42.8,40.0,29.87,West,274,0.0,0.0,89,0.00,,,0.00,weatherlink.com 1.10,2013-05-23 13:09:00,
2013-05-23 07:24:00,43.3,40.0,29.86,East,91,0.0,2.0,89,0.00,,,0.00,weatherlink.com 1.10,2013-05-23 13:24:00,
2013-05-23 07:39:00,44.1,40.0,29.86,ENE,78,1.0,2.0,85,0.00,,,0.00,weatherlink.com 1.10,2013-05-23 13:39:00,
2013-05-23 07:54:00,44.9,41.0,29.86,East,81,0.0,0.0,86,0.00,,,0.00,weatherlink.com 1.10,2013-05-23 13:54:00,
2013-05-23 08:09:00,44.6,41.0,29.86,East,81,0.0,0.0,87,0.00,,,0.00,weatherlink.com 1.10,2013-05-23 14:09:00,
2013-05-23 08:24:00,45.5,42.0,29.85,ENE,67,4.0,6.0,87,0.00,,,0.00,weatherlink.com 1.10,2013-05-23 14:24:00,
2013-05-23 08:39:00,45.1,42.0,29.86,East,86,5.0,6.0,88,0.00,,,0.00,weatherlink.com 1.10,2013-05-23 14:39:00,
2013-05-23 08:54:00,44.5,42.0,29.86,ESE,123,4.0,6.0,90,0.00,,,0.00,weatherlink.com 1.10,2013-05-23 14:54:00,
2013-05-23 09:09:00,44.4,41.0,29.85,East,83,2.0,4.0,89,0.00,,,0.00,weatherlink.com 1.10,2013-05-23 15:09:00,
2013-05-23 09:24:00,45.9,43.0,29.86,East,96,0.0,1.0,88,0.00,,,0.00,weatherlink.com 1.10,2013-05-23 15:24:00,
2013-05-23 09:39:00,46.2,43.0,29.85,East,96,3.0,6.0,87,0.00,,,0.00,weatherlink.com 1.10,2013-05-23 15:39:00,
2013-05-23 09:54:00,46.3,42.0,29.85,East,101,5.0,8.0,85,0.00,,,0.00,weatherlink.com 1.10,2013-05-23 15:54:00,
2013-05-23 10:24:00,47.5,44.0,29.84,ENE,72,3.0,4.0,87,0.00,,,0.00,weatherlink.com 1.10,2013-05-23 16:24:00,
2013-05-23 10:39:00,48.3,44.0,29.84,ENE,61,5.0,6.0,85,0.00,,,0.00,weatherlink.com 1.10,2013-05-23 16:39:00,
2013-05-23 10:54:00,48.9,44.0,29.83,East,95,5.0,10.0,84,0.00,,,0.00,weatherlink.com 1.10,2013-05-23 16:54:00,
2013-05-23 11:09:00,48.4,44.0,29.83,ENE,77,9.0,11.0,86,0.00,,,0.00,weatherlink.com 1.10,2013-05-23 17:09:00,
2013-05-23 11:24:00,46.8,44.0,29.84,ENE,63,2.0,8.0,89,0.00,,,0.00,weatherlink.com 1.10,2013-05-23 17:24:00,
2013-05-23 11:39:00,47.4,44.0,29.84,ENE,65,2.0,8.0,88,0.00,,,0.00,weatherlink.com 1.10,2013-05-23 17:39:00,
2013-05-23 11:54:00,47.4,44.0,29.85,East,99,4.0,8.0,88,0.00,,,0.00,weatherlink.com 1.10,2013-05-23 17:54:00,
2013-05-23 12:09:00,47.8,45.0,29.85,NE,37,6.0,6.0,89,0.00,,,0.00,weatherlink.com 1.10,2013-05-23 18:09:00,
2013-05-23 12:24:00,48.4,44.0,29.85,NNE,13,2.0,7.0,86,0.00,,,0.00,weatherlink.com 1.10,2013-05-23 18:24:00,
2013-05-23 12:39:00,48.5,45.0,29.84,ENE,70,1.0,6.0,87,0.00,,,0.00,weatherlink.com 1.10,2013-05-23 18:39:00,
2013-05-23 12:54:00,49.9,45.0,29.84,NE,37,1.0,6.0,84,0.00,,,0.00,weatherlink.com 1.10,2013-05-23 18:54:00,
2013-05-23 13:09:00,49.8,46.0,29.84,West,264,2.0,9.0,85,0.00,,,0.00,weatherlink.com 1.10,2013-05-23 19:09:00,
2013-05-23 13:24:00,52.2,47.0,29.83,NNW,328,5.0,7.0,82,0.00,,,0.00,weatherlink.com 1.10,2013-05-23 19:24:00,
2013-05-23 13:39:00,53.1,47.0,29.84,NNW,345,4.0,7.0,79,0.00,,,0.00,weatherlink.com 1.10,2013-05-23 19:39:00,
2013-05-23 13:55:00,54.7,48.0,29.83,NW,322,2.0,10.0,78,0.00,,,0.00,weatherlink.com 1.10,2013-05-23 19:55:00,
2013-05-23 14:10:00,56.5,47.0,29.83,NE,50,5.0,9.0,71,0.00,,,0.00,weatherlink.com 1.10,2013-05-23 20:10:00,
2013-05-23 14:25:00,57.5,47.0,29.83,East,82,7.0,10.0,69,0.00,,,0.00,weatherlink.com 1.10,2013-05-23 20:25:00,
2013-05-23 14:40:00,55.8,47.0,29.82,East,82,7.0,15.0,72,0.00,,,0.00,weatherlink.com 1.10,2013-05-23 20:40:00,
2013-05-23 14:55:00,55.3,46.0,29.82,NE,40,4.0,10.0,71,0.00,,,0.00,weatherlink.com 1.10,2013-05-23 20:55:00,
2013-05-23 15:10:00,56.1,46.0,29.82,ENE,77,9.0,13.0,69,0.00,,,0.00,weatherlink.com 1.10,2013-05-23 21:10:00,
2013-05-23 15:25:00,55.4,46.0,29.82,ENE,62,4.0,9.0,71,0.00,,,0.00,weatherlink.com 1.10,2013-05-23 21:25:00,
2013-05-23 15:40:00,55.7,46.0,29.82,NE,49,4.0,9.0,69,0.00,,,0.00,weatherlink.com 1.10,2013-05-23 21:40:00,
2013-05-23 15:55:00,54.9,46.0,29.81,NE,45,5.0,8.0,71,0.00,,,0.00,weatherlink.com 1.10,2013-05-23 21:55:00,
2013-05-23 16:10:00,54.6,46.0,29.82,East,84,5.0,8.0,73,0.00,,,0.00,weatherlink.com 1.10,2013-05-23 22:10:00,
2013-05-23 16:25:00,53.7,46.0,29.83,ESE,103,6.0,10.0,74,0.00,,,0.00,weatherlink.com 1.10,2013-05-23 22:25:00,
2013-05-23 16:40:00,53.8,45.0,29.83,North,9,1.0,8.0,73,0.00,,,0.00,weatherlink.com 1.10,2013-05-23 22:40:00,
2013-05-23 16:55:00,54.3,45.0,29.83,ENE,76,1.0,8.0,72,0.00,,,0.00,weatherlink.com 1.10,2013-05-23 22:55:00,
2013-05-23 17:10:00,53.4,46.0,29.83,NE,46,2.0,7.0,77,0.00,,,0.00,weatherlink.com 1.10,2013-05-23 23:10:00,
2013-05-23 17:25:00,52.9,46.0,29.83,NNE,26,3.0,9.0,78,0.00,,,0.00,weatherlink.com 1.10,2013-05-23 23:25:00,
2013-05-23 17:40:00,52.3,46.0,29.84,NE,45,3.0,7.0,78,0.00,,,0.00,weatherlink.com 1.10,2013-05-23 23:40:00,
2013-05-23 17:55:00,52.2,46.0,29.83,East,82,4.0,7.0,78,0.00,,,0.00,weatherlink.com 1.10,2013-05-23 23:55:00,
2013-05-23 18:10:00,51.9,46.0,29.83,NNE,30,6.0,6.0,79,0.00,,,0.00,weatherlink.com 1.10,2013-05-24 00:10:00,
2013-05-23 18:25:00,51.9,46.0,29.82,NE,54,5.0,5.0,80,0.00,,,0.00,weatherlink.com 1.10,2013-05-24 00:25:00,
2013-05-23 18:40:00,51.6,46.0,29.83,East,80,3.0,5.0,80,0.00,,,0.00,weatherlink.com 1.10,2013-05-24 00:40:00,
2013-05-23 18:55:00,50.8,46.0,29.83,ENE,68,1.0,5.0,82,0.00,,,0.00,weatherlink.com 1.10,2013-05-24 00:55:00,
2013-05-23 19:10:00,50.5,46.0,29.83,NNE,22,2.0,3.0,83,0.00,,,0.00,weatherlink.com 1.10,2013-05-24 01:10:00,
2013-05-23 19:25:00,50.0,45.0,29.84,ENE,75,2.0,4.0,84,0.00,,,0.00,weatherlink.com 1.10,2013-05-24 01:25:00,
2013-05-23 19:40:00,49.9,45.0,29.82,East,81,0.0,3.0,84,0.00,,,0.00,weatherlink.com 1.10,2013-05-24 01:40:00,
2013-05-23 19:55:00,49.8,46.0,29.82,East,80,0.0,0.0,85,0.00,,,0.00,weatherlink.com 1.10,2013-05-24 01:55:00,
2013-05-23 20:10:00,49.6,45.0,29.83,NW,320,0.0,0.0,85,0.00,,,0.00,weatherlink.com 1.10,2013-05-24 02:10:00,
2013-05-23 20:25:00,49.3,45.0,29.83,NW,321,0.0,0.0,86,0.00,,,0.00,weatherlink.com 1.10,2013-05-24 02:25:00,
2013-05-23 20:40:00,48.8,45.0,29.83,NW,321,0.0,0.0,86,0.00,,,0.00,weatherlink.com 1.10,2013-05-24 02:40:00,
2013-05-23 20:55:00,47.1,44.0,29.84,NW,321,0.0,0.0,87,0.00,,,0.00,weatherlink.com 1.10,2013-05-24 02:55:00,
2013-05-23 21:10:00,45.4,42.0,29.85,NW,321,0.0,0.0,89,0.00,,,0.00,weatherlink.com 1.10,2013-05-24 03:10:00,
2013-05-23 21:25:00,44.1,42.0,29.86,NW,321,0.0,0.0,91,0.00,,,0.00,weatherlink.com 1.10,2013-05-24 03:25:00,
2013-05-23 21:40:00,43.6,42.0,29.85,NNE,24,2.0,2.0,92,0.00,,,0.00,weatherlink.com 1.10,2013-05-24 03:40:00,
2013-05-23 21:55:00,42.9,41.0,29.86,WNW,300,0.0,2.0,93,0.00,,,0.00,weatherlink.com 1.10,2013-05-24 03:55:00,
2013-05-23 22:10:00,42.2,40.0,29.86,West,276,0.0,0.0,93,0.00,,,0.00,weatherlink.com 1.10,2013-05-24 04:10:00,
2013-05-23 22:25:00,41.5,40.0,29.86,West,276,0.0,0.0,93,0.00,,,0.00,weatherlink.com 1.10,2013-05-24 04:25:00,
2013-05-23 22:40:00,41.1,40.0,29.86,West,269,0.0,0.0,94,0.00,,,0.00,weatherlink.com 1.10,2013-05-24 04:40:00,
2013-05-23 22:55:00,39.9,38.0,29.87,NW,319,0.0,0.0,94,0.00,,,0.00,weatherlink.com 1.10,2013-05-24 04:55:00,
2013-05-23 23:10:00,39.1,38.0,29.88,NW,310,0.0,0.0,94,0.00,,,0.00,weatherlink.com 1.10,2013-05-24 05:10:00,
2013-05-23 23:25:00,39.0,38.0,29.87,West,272,0.0,0.0,94,0.00,,,0.00,weatherlink.com 1.10,2013-05-24 05:25:00,
2013-05-23 23:40:00,38.1,37.0,29.87,West,273,0.0,0.0,94,0.00,,,0.00,weatherlink.com 1.10,2013-05-24 05:40:00,
2013-05-23 23:55:00,37.5,36.0,29.87,West,272,0.0,0.0,94,0.00,,,0.00,weatherlink.com 1.10,2013-05-24 05:55:00,